DL9BGG-13 Weather Reports


time (UTC)temp
C
wind
direction
speed
KPH
gust
KPH
rain 1hr
cm
rain 24hr
cm
rain mn
cm
humidity
%
barometer
mb
20260506140242 13 90 19.3 0.0 0.00 0.00 0.00 69 1055.8
20260506140137 13 0 9.7 0.0 0.00 0.00 0.00 69 1055.8
20260506140030 13 0 9.7 0.0 0.00 0.00 0.00 70 1055.8
20260506135908 13 0 17.7 0.0 0.00 0.00 0.00 70 1055.8
20260506135747 13 0 6.4 0.0 0.00 0.00 0.00 70 1055.8
20260506135637 13 45 12.9 0.0 0.00 0.00 0.00 70 1055.8
20260506135530 13 45 8.0 0.0 0.00 0.00 0.00 71 1055.8
20260506135427 13 45 14.5 0.0 0.00 0.00 0.00 70 1055.8
20260506135320 13 0 14.5 0.0 0.00 0.00 0.00 70 1055.8
20260506135215 13 0 14.5 0.0 0.00 0.00 0.00 72 1055.9
20260506135102 13 0 8.0 0.0 0.00 0.00 0.00 72 1055.7
20260506134955 13 0 11.3 0.0 0.00 0.00 0.00 72 1055.8
20260506134835 13 22 14.5 0.0 0.00 0.00 0.00 71 1055.8
20260506134719 13 0 17.7 0.0 0.00 0.00 0.00 72 1055.8
20260506134607 13 0 6.4 0.0 0.00 0.00 0.00 72 1055.8
20260506134500 13 45 14.5 0.0 0.00 0.00 0.00 71 1055.8
20260506134355 13 45 22.5 0.0 0.00 0.00 0.00 70 1055.8
20260506134249 13 45 19.3 0.0 0.00 0.00 0.00 71 1055.8
20260506134144 13 22 25.7 0.0 0.00 0.00 0.00 73 1055.8
20260506134031 13 112 11.3 0.0 0.00 0.00 0.00 73 1055.8
20260506133909 12 0 0.0 0.0 0.00 0.00 0.00 72 1055.7
20260506133756 12 22 11.3 0.0 0.00 0.00 0.00 72 1055.8
20260506133651 12 22 8.0 0.0 0.00 0.00 0.00 71 1055.8
20260506133529 13 45 27.4 0.0 0.00 0.00 0.00 72 1055.7
20260506133408 13 67 20.9 0.0 0.00 0.00 0.00 72 1055.8
20260506133302 13 0 9.7 0.0 0.00 0.00 0.00 72 1055.7
20260506133148 13 0 14.5 0.0 0.00 0.00 0.00 72 1055.6
20260506133035 13 45 11.3 0.0 0.00 0.00 0.00 73 1055.7
20260506132914 13 22 17.7 0.0 0.00 0.00 0.00 73 1055.7
20260506132809 13 67 22.5 0.0 0.00 0.00 0.00 72 1055.7
20260506132705 12 45 11.3 0.0 0.00 0.00 0.00 72 1055.7
20260506132558 12 22 16.1 0.0 0.00 0.00 0.00 73 1055.7
20260506132438 12 45 16.1 0.0 0.00 0.00 0.00 73 1055.8
20260506132324 12 0 9.7 0.0 0.00 0.00 0.00 74 1055.8
20260506132214 12 45 9.7 0.0 0.00 0.00 0.00 74 1055.7
20260506132059 12 0 16.1 0.0 0.00 0.00 0.00 73 1055.7
20260506131953 12 0 30.6 0.0 0.00 0.00 0.00 74 1055.7
20260506131840 12 337 14.5 0.0 0.00 0.00 0.00 75 1055.7
20260506131719 12 337 14.5 0.0 0.00 0.00 0.00 74 1055.7
20260506131607 12 45 14.5 0.0 0.00 0.00 0.00 74 1055.6
20260506131500 12 45 11.3 0.0 0.00 0.00 0.00 73 1055.6
20260506131339 12 22 27.4 0.0 0.00 0.00 0.00 74 1055.7
20260506131226 12 0 22.5 0.0 0.00 0.00 0.00 74 1055.7
20260506131113 12 45 16.1 0.0 0.00 0.00 0.00 75 1055.7
20260506131008 12 0 17.7 0.0 0.00 0.00 0.00 75 1055.7
20260506130847 12 0 9.7 0.0 0.00 0.00 0.00 74 1055.7
20260506130733 12 45 9.7 0.0 0.00 0.00 0.00 74 1055.6
20260506130623 12 337 24.1 0.0 0.00 0.00 0.00 74 1055.6
20260506130517 12 0 14.5 0.0 0.00 0.00 0.00 75 1055.7
20260506130403 12 22 17.7 0.0 0.00 0.00 0.00 75 1055.7
20260506130257 12 45 9.7 0.0 0.00 0.00 0.00 75 1055.8
20260506130145 12 0 8.0 0.0 0.00 0.00 0.00 75 1055.7
20260506130031 12 0 9.7 0.0 0.00 0.00 0.00 75 1055.7
20260506125925 12 22 6.4 0.0 0.00 0.00 0.00 75 1055.7
20260506125813 12 337 19.3 0.0 0.00 0.00 0.00 75 1055.7
20260506125700 12 45 17.7 0.0 0.00 0.00 0.00 75 1055.6
20260506125538 12 22 19.3 0.0 0.00 0.00 0.00 75 1055.7
20260506125426 12 22 20.9 0.0 0.00 0.00 0.00 75 1055.7
20260506125315 12 22 22.5 0.0 0.00 0.00 0.00 75 1055.7
20260506125159 12 0 17.7 0.0 0.00 0.00 0.00 74 1055.6
20260506125046 12 337 22.5 0.0 0.00 0.00 0.00 74 1055.7
20260506124934 12 45 9.7 0.0 0.00 0.00 0.00 74 1055.7
20260506124828 12 0 20.9 0.0 0.00 0.00 0.00 74 1055.6
20260506124714 13 45 14.5 0.0 0.00 0.00 0.00 73 1055.6
20260506124553 13 22 20.9 0.0 0.00 0.00 0.00 73 1055.7
20260506124424 13 45 17.7 0.0 0.00 0.00 0.00 73 1055.6
20260506124312 13 22 12.9 0.0 0.00 0.00 0.00 73 1055.6
20260506124207 13 0 6.4 0.0 0.00 0.00 0.00 73 1055.5
20260506124053 13 22 11.3 0.0 0.00 0.00 0.00 74 1055.5
20260506123941 13 0 8.0 0.0 0.00 0.00 0.00 73 1055.5
20260506123818 13 0 20.9 0.0 0.00 0.00 0.00 73 1055.5
20260506123657 13 45 17.7 0.0 0.00 0.00 0.00 73 1055.5
20260506123537 13 22 19.3 0.0 0.00 0.00 0.00 73 1055.5
20260506123430 13 0 12.9 0.0 0.00 0.00 0.00 73 1055.5
20260506123309 13 0 17.7 0.0 0.00 0.00 0.00 72 1055.5
20260506123149 13 45 9.7 0.0 0.00 0.00 0.00 72 1055.5
20260506123045 13 22 8.0 0.0 0.00 0.00 0.00 72 1055.5
20260506122938 13 0 17.7 0.0 0.00 0.00 0.00 71 1055.5
20260506122832 13 0 12.9 0.0 0.00 0.00 0.00 71 1055.5
20260506122727 13 22 8.0 0.0 0.00 0.00 0.00 72 1055.5
20260506122622 13 0 8.0 0.0 0.00 0.00 0.00 71 1055.5
20260506122515 13 22 16.1 0.0 0.00 0.00 0.00 71 1055.5
20260506122402 13 67 12.9 0.0 0.00 0.00 0.00 72 1055.5
20260506122242 13 22 0.0 0.0 0.00 0.00 0.00 72 1055.4
20260506122135 13 67 16.1 0.0 0.00 0.00 0.00 71 1055.4
20260506122022 13 22 9.7 0.0 0.00 0.00 0.00 71 1055.4
20260506121910 13 67 9.7 0.0 0.00 0.00 0.00 70 1055.5
20260506121757 13 22 20.9 0.0 0.00 0.00 0.00 70 1055.4
20260506121653 13 45 19.3 0.0 0.00 0.00 0.00 70 1055.5
20260506121538 13 45 11.3 0.0 0.00 0.00 0.00 71 1055.4
20260506121424 13 22 9.7 0.0 0.00 0.00 0.00 71 1055.4
20260506121305 13 337 12.9 0.0 0.00 0.00 0.00 70 1055.4
20260506121158 13 67 19.3 0.0 0.00 0.00 0.00 70 1055.4
20260506121037 13 45 12.9 0.0 0.00 0.00 0.00 69 1055.4
20260506120916 13 45 20.9 0.0 0.00 0.00 0.00 68 1055.4
20260506120813 13 0 20.9 0.0 0.00 0.00 0.00 68 1055.3
20260506120658 14 45 9.7 0.0 0.00 0.00 0.00 69 1055.3
20260506120545 13 45 9.7 0.0 0.00 0.00 0.00 69 1055.3
20260506120431 13 337 9.7 0.0 0.00 0.00 0.00 70 1055.4
20260506120311 13 0 8.0 0.0 0.00 0.00 0.00 69 1055.2
20260506120207 13 22 12.9 0.0 0.00 0.00 0.00 69 1055.2
20260506120100 13 67 16.1 0.0 0.00 0.00 0.00 69 1055.2
20260506115948 13 45 12.9 0.0 0.00 0.00 0.00 69 1055.2
20260506115820 13 22 24.1 0.0 0.00 0.00 0.00 70 1055.2
20260506115715 13 0 20.9 0.0 0.00 0.00 0.00 69 1055.3
20260506115609 13 22 14.5 0.0 0.00 0.00 0.00 70 1055.3
20260506115505 13 45 19.3 0.0 0.00 0.00 0.00 70 1055.3
20260506115400 13 22 17.7 0.0 0.00 0.00 0.00 70 1055.2
20260506115253 13 45 20.9 0.0 0.00 0.00 0.00 69 1055.3
20260506115140 13 22 14.5 0.0 0.00 0.00 0.00 69 1055.3
20260506115035 13 337 8.0 0.0 0.00 0.00 0.00 68 1055.4
20260506114931 13 0 14.5 0.0 0.00 0.00 0.00 68 1055.3
20260506114824 14 0 9.7 0.0 0.00 0.00 0.00 68 1055.3
20260506114706 14 45 17.7 0.0 0.00 0.00 0.00 68 1055.3
20260506114558 14 0 27.4 0.0 0.00 0.00 0.00 68 1055.3
20260506114448 14 45 19.3 0.0 0.00 0.00 0.00 68 1055.3
20260506114340 14 292 11.3 0.0 0.00 0.00 0.00 68 1055.3
20260506114227 14 22 12.9 0.0 0.00 0.00 0.00 67 1055.3
20260506114122 14 22 12.9 0.0 0.00 0.00 0.00 66 1055.2
20260506114001 14 45 17.7 0.0 0.00 0.00 0.00 66 1055.2
20260506113840 14 67 11.3 0.0 0.00 0.00 0.00 65 1055.2
20260506113726 14 22 12.9 0.0 0.00 0.00 0.00 66 1055.2
20260506113605 14 67 9.7 0.0 0.00 0.00 0.00 66 1055.2
20260506113452 14 22 12.9 0.0 0.00 0.00 0.00 66 1055.3
20260506113347 14 67 11.3 0.0 0.00 0.00 0.00 65 1055.3
20260506113235 14 0 20.9 0.0 0.00 0.00 0.00 64 1055.3
20260506113128 14 45 14.5 0.0 0.00 0.00 0.00 65 1055.3
20260506113014 14 22 20.9 0.0 0.00 0.00 0.00 64 1055.3
20260506112902 14 22 24.1 0.0 0.00 0.00 0.00 64 1055.3
20260506112748 14 0 19.3 0.0 0.00 0.00 0.00 64 1055.3
20260506112627 14 22 19.3 0.0 0.00 0.00 0.00 64 1055.3
20260506112520 14 0 8.0 0.0 0.00 0.00 0.00 64 1055.3
20260506112409 14 45 22.5 0.0 0.00 0.00 0.00 64 1055.3
20260506112305 14 45 12.9 0.0 0.00 0.00 0.00 64 1055.3
20260506112149 14 22 9.7 0.0 0.00 0.00 0.00 63 1055.3
20260506112045 14 22 11.3 0.0 0.00 0.00 0.00 63 1055.3
20260506111939 14 0 6.4 0.0 0.00 0.00 0.00 63 1055.4
20260506111834 14 67 16.1 0.0 0.00 0.00 0.00 62 1055.3
20260506111712 14 0 19.3 0.0 0.00 0.00 0.00 62 1055.3
20260506111600 14 45 29.0 0.0 0.00 0.00 0.00 63 1055.4
20260506111447 14 0 9.7 0.0 0.00 0.00 0.00 63 1055.2
20260506111341 14 67 17.7 0.0 0.00 0.00 0.00 63 1055.3
20260506111237 14 22 6.4 0.0 0.00 0.00 0.00 62 1055.4
20260506111132 14 22 8.0 0.0 0.00 0.00 0.00 62 1055.3
20260506111025 14 22 12.9 0.0 0.00 0.00 0.00 62 1055.2
20260506110913 14 22 14.5 0.0 0.00 0.00 0.00 62 1055.3
20260506110752 14 337 14.5 0.0 0.00 0.00 0.00 62 1055.2
20260506110631 14 67 20.9 0.0 0.00 0.00 0.00 62 1055.3
20260506110517 13 67 24.1 0.0 0.00 0.00 0.00 61 1055.2
20260506110357 13 45 11.3 0.0 0.00 0.00 0.00 60 1055.3
20260506110251 13 22 29.0 0.0 0.00 0.00 0.00 61 1055.2
20260506110147 13 45 14.5 0.0 0.00 0.00 0.00 60 1055.3
20260506110042 13 67 19.3 0.0 0.00 0.00 0.00 61 1055.3
20260506105936 13 67 14.5 0.0 0.00 0.00 0.00 61 1055.3
20260506105815 13 45 17.7 0.0 0.00 0.00 0.00 62 1055.3
20260506105654 13 45 11.3 0.0 0.00 0.00 0.00 61 1055.2
20260506105549 13 90 11.3 0.0 0.00 0.00 0.00 61 1055.2
20260506105443 13 45 29.0 0.0 0.00 0.00 0.00 60 1055.2
20260506105330 13 45 19.3 0.0 0.00 0.00 0.00 61 1055.2
20260506105201 13 90 8.0 0.0 0.00 0.00 0.00 61 1055.2
20260506105048 13 67 17.7 0.0 0.00 0.00 0.00 60 1055.2
20260506104935 13 45 12.9 0.0 0.00 0.00 0.00 60 1055.2
20260506104814 13 22 16.1 0.0 0.00 0.00 0.00 61 1055.2
20260506104701 13 45 6.4 0.0 0.00 0.00 0.00 61 1055.2
20260506104548 13 22 11.3 0.0 0.00 0.00 0.00 63 1055.2
20260506104418 13 45 17.7 0.0 0.00 0.00 0.00 62 1055.2
20260506104257 13 67 11.3 0.0 0.00 0.00 0.00 62 1055.2
20260506104144 13 67 9.7 0.0 0.00 0.00 0.00 62 1055.2
20260506104039 13 45 16.1 0.0 0.00 0.00 0.00 63 1055.2
20260506103934 13 45 11.3 0.0 0.00 0.00 0.00 63 1055.2
20260506103830 13 90 8.0 0.0 0.00 0.00 0.00 63 1055.2
20260506103724 13 67 24.1 0.0 0.00 0.00 0.00 62 1055.2
20260506103610 13 45 17.7 0.0 0.00 0.00 0.00 62 1055.2
20260506103450 13 67 16.1 0.0 0.00 0.00 0.00 62 1055.3
20260506103337 13 67 8.0 0.0 0.00 0.00 0.00 62 1055.2
20260506103232 13 67 11.3 0.0 0.00 0.00 0.00 62 1055.2
20260506103126 13 45 11.3 0.0 0.00 0.00 0.00 62 1055.2
20260506103013 13 22 6.4 0.0 0.00 0.00 0.00 62 1055.2
20260506102900 13 112 12.9 0.0 0.00 0.00 0.00 64 1055.2
20260506102739 13 45 8.0 0.0 0.00 0.00 0.00 64 1055.2
20260506102626 13 45 8.0 0.0 0.00 0.00 0.00 63 1055.2
20260506102521 13 112 19.3 0.0 0.00 0.00 0.00 63 1055.2
20260506102408 13 67 19.3 0.0 0.00 0.00 0.00 62 1055.1
20260506102257 13 0 6.4 0.0 0.00 0.00 0.00 63 1055.1
20260506102150 13 67 12.9 0.0 0.00 0.00 0.00 64 1055.1
20260506102045 13 45 16.1 0.0 0.00 0.00 0.00 64 1055.2
20260506101940 13 67 4.8 0.0 0.00 0.00 0.00 64 1055.1
20260506101827 13 112 4.8 0.0 0.00 0.00 0.00 63 1055.1
20260506101722 13 45 12.9 0.0 0.00 0.00 0.00 65 1055.1
20260506101616 13 90 25.7 0.0 0.00 0.00 0.00 65 1055.1
20260506101511 13 90 16.1 0.0 0.00 0.00 0.00 66 1055.2
20260506101406 12 67 0.0 0.0 0.00 0.00 0.00 66 1055.2
20260506101255 12 90 9.7 0.0 0.00 0.00 0.00 66 1055.1
20260506101139 12 45 24.1 0.0 0.00 0.00 0.00 66 1055.1
20260506101029 12 112 11.3 0.0 0.00 0.00 0.00 66 1055.1
20260506100922 12 45 17.7 0.0 0.00 0.00 0.00 66 1055.1
20260506100802 12 90 11.3 0.0 0.00 0.00 0.00 66 1055.1
20260506100658 12 22 6.4 0.0 0.00 0.00 0.00 67 1055.1
20260506100550 12 22 12.9 0.0 0.00 0.00 0.00 67 1055.1
20260506100440 12 112 0.0 0.0 0.00 0.00 0.00 66 1055.1
20260506100332 12 22 22.5 0.0 0.00 0.00 0.00 66 1055.1
20260506100212 12 45 4.8 0.0 0.00 0.00 0.00 66 1055.1
20260506100058 12 45 16.1 0.0 0.00 0.00 0.00 66 1055.1
20260506095938 12 67 12.9 0.0 0.00 0.00 0.00 66 1055.1
20260506095832 12 67 14.5 0.0 0.00 0.00 0.00 66 1055.0
20260506095718 12 45 27.4 0.0 0.00 0.00 0.00 66 1055.0
20260506095606 12 0 12.9 0.0 0.00 0.00 0.00 66 1055.0
20260506095445 12 45 12.9 0.0 0.00 0.00 0.00 67 1055.1
20260506095332 12 112 12.9 0.0 0.00 0.00 0.00 67 1055.0
20260506095227 12 112 11.3 0.0 0.00 0.00 0.00 67 1055.0
20260506095122 12 67 14.5 0.0 0.00 0.00 0.00 67 1055.1
20260506095008 12 22 12.9 0.0 0.00 0.00 0.00 66 1055.0
20260506094855 12 45 19.3 0.0 0.00 0.00 0.00 67 1055.0
20260506094735 12 45 8.0 0.0 0.00 0.00 0.00 67 1055.0
20260506094630 12 90 4.8 0.0 0.00 0.00 0.00 68 1055.0
20260506094525 12 45 12.9 0.0 0.00 0.00 0.00 68 1055.0
20260506094411 12 22 22.5 0.0 0.00 0.00 0.00 68 1054.9
20260506094258 12 22 8.0 0.0 0.00 0.00 0.00 68 1055.0
20260506094146 12 67 8.0 0.0 0.00 0.00 0.00 67 1054.9
20260506094040 12 90 27.4 0.0 0.00 0.00 0.00 68 1054.8
20260506093927 12 0 14.5 0.0 0.00 0.00 0.00 68 1054.8
20260506093813 12 45 12.9 0.0 0.00 0.00 0.00 68 1054.8
20260506093700 12 67 9.7 0.0 0.00 0.00 0.00 68 1055.0
20260506093539 12 45 19.3 0.0 0.00 0.00 0.00 68 1054.9
20260506093426 12 0 6.4 0.0 0.00 0.00 0.00 67 1054.9
20260506093313 12 22 20.9 0.0 0.00 0.00 0.00 67 1054.9
20260506093201 12 22 14.5 0.0 0.00 0.00 0.00 67 1054.9
20260506093054 12 22 0.0 0.0 0.00 0.00 0.00 67 1055.0
20260506092942 12 112 14.5 0.0 0.00 0.00 0.00 67 1055.1
20260506092830 12 90 9.7 0.0 0.00 0.00 0.00 68 1055.0
20260506092723 12 90 6.4 0.0 0.00 0.00 0.00 68 1055.0
20260506092612 12 45 9.7 0.0 0.00 0.00 0.00 68 1055.0
20260506092505 12 45 8.0 0.0 0.00 0.00 0.00 67 1055.0
20260506092400 12 22 9.7 0.0 0.00 0.00 0.00 66 1055.0
20260506092250 12 45 16.1 0.0 0.00 0.00 0.00 66 1055.0
20260506092143 12 67 9.7 0.0 0.00 0.00 0.00 66 1055.0
20260506092029 12 90 11.3 0.0 0.00 0.00 0.00 67 1055.0
20260506091909 12 67 8.0 0.0 0.00 0.00 0.00 66 1055.0
20260506091805 12 67 14.5 0.0 0.00 0.00 0.00 66 1055.1
20260506091659 12 45 11.3 0.0 0.00 0.00 0.00 67 1055.0
20260506091552 12 67 3.2 0.0 0.00 0.00 0.00 67 1055.0
20260506091431 12 67 9.7 0.0 0.00 0.00 0.00 67 1055.0
20260506091309 12 90 24.1 0.0 0.00 0.00 0.00 66 1055.0
20260506091142 12 67 8.0 0.0 0.00 0.00 0.00 67 1055.0
20260506091037 12 67 11.3 0.0 0.00 0.00 0.00 67 1055.0
20260506090923 12 67 6.4 0.0 0.00 0.00 0.00 67 1054.9
20260506090801 12 90 11.3 0.0 0.00 0.00 0.00 66 1055.0
20260506090635 12 45 9.7 0.0 0.00 0.00 0.00 66 1054.9
20260506090527 12 112 20.9 0.0 0.00 0.00 0.00 66 1054.9
20260506090414 12 45 24.1 0.0 0.00 0.00 0.00 66 1054.9
20260506090301 12 67 6.4 0.0 0.00 0.00 0.00 66 1054.9
20260506090148 12 45 14.5 0.0 0.00 0.00 0.00 67 1055.0
20260506090037 12 45 11.3 0.0 0.00 0.00 0.00 66 1054.8
20260506085930 12 112 17.7 0.0 0.00 0.00 0.00 66 1055.0
20260506085810 12 45 17.7 0.0 0.00 0.00 0.00 66 1054.9
20260506085657 12 67 17.7 0.0 0.00 0.00 0.00 67 1054.8
20260506085551 12 112 19.3 0.0 0.00 0.00 0.00 67 1054.9
20260506085439 12 90 9.7 0.0 0.00 0.00 0.00 66 1054.9
20260506085335 12 67 9.7 0.0 0.00 0.00 0.00 67 1054.9
20260506085227 12 67 17.7 0.0 0.00 0.00 0.00 69 1054.9
20260506085106 12 90 8.0 0.0 0.00 0.00 0.00 68 1054.8
20260506084944 12 45 0.0 0.0 0.00 0.00 0.00 69 1054.9
20260506084832 12 90 11.3 0.0 0.00 0.00 0.00 68 1054.9
20260506084710 12 67 9.7 0.0 0.00 0.00 0.00 68 1054.9
20260506084550 12 90 11.3 0.0 0.00 0.00 0.00 68 1054.9
20260506084444 12 112 14.5 0.0 0.00 0.00 0.00 68 1054.9
20260506084317 12 67 9.7 0.0 0.00 0.00 0.00 69 1054.8
20260506084203 12 67 9.7 0.0 0.00 0.00 0.00 69 1054.9
20260506084048 12 90 14.5 0.0 0.00 0.00 0.00 69 1054.9
20260506083920 12 45 9.7 0.0 0.00 0.00 0.00 69 1054.9
20260506083815 12 45 19.3 0.0 0.00 0.00 0.00 69 1054.9
20260506083703 12 112 22.5 0.0 0.00 0.00 0.00 68 1055.0
20260506083548 12 67 12.9 0.0 0.00 0.00 0.00 69 1054.9
20260506083419 12 67 11.3 0.0 0.00 0.00 0.00 69 1054.9
20260506083257 12 67 25.7 0.0 0.00 0.00 0.00 70 1054.9
20260506083138 12 45 11.3 0.0 0.00 0.00 0.00 70 1055.0
20260506083031 12 90 0.0 0.0 0.00 0.00 0.00 71 1055.0
20260506082910 12 90 6.4 0.0 0.00 0.00 0.00 70 1055.0
20260506082757 12 112 8.0 0.0 0.00 0.00 0.00 70 1055.0
20260506082652 12 67 6.4 0.0 0.00 0.00 0.00 70 1054.9
20260506082539 12 67 17.7 0.0 0.00 0.00 0.00 70 1055.0
20260506082434 12 45 9.7 0.0 0.00 0.00 0.00 69 1054.9
20260506082320 12 67 11.3 0.0 0.00 0.00 0.00 69 1054.9
20260506082200 12 67 0.0 0.0 0.00 0.00 0.00 69 1054.9
20260506082046 12 45 9.7 0.0 0.00 0.00 0.00 69 1054.8
20260506081926 12 90 9.7 0.0 0.00 0.00 0.00 69 1054.8
20260506081820 12 67 19.3 0.0 0.00 0.00 0.00 69 1054.8
20260506081706 12 112 11.3 0.0 0.00 0.00 0.00 69 1054.8
20260506081545 12 90 24.1 0.0 0.00 0.00 0.00 69 1054.8
20260506081424 12 90 14.5 0.0 0.00 0.00 0.00 68 1054.8
20260506081256 12 45 19.3 0.0 0.00 0.00 0.00 68 1054.8
20260506081153 12 112 14.5 0.0 0.00 0.00 0.00 68 1054.8
20260506081045 12 112 12.9 0.0 0.00 0.00 0.00 68 1054.8
20260506080926 12 67 8.0 0.0 0.00 0.00 0.00 68 1054.8
20260506080812 12 45 12.9 0.0 0.00 0.00 0.00 68 1054.8
20260506080706 12 112 20.9 0.0 0.00 0.00 0.00 68 1054.8
20260506080555 12 90 12.9 0.0 0.00 0.00 0.00 68 1054.8
20260506080449 12 45 9.7 0.0 0.00 0.00 0.00 68 1054.8
20260506080342 12 45 17.7 0.0 0.00 0.00 0.00 68 1054.8
20260506080222 12 67 17.7 0.0 0.00 0.00 0.00 69 1054.9
20260506080110 12 90 11.3 0.0 0.00 0.00 0.00 68 1054.8
20260506073525 11 67 20.9 0.0 0.00 0.00 0.00 71 1054.6
20260506073419 11 67 17.7 0.0 0.00 0.00 0.00 71 1054.6
20260506073315 11 45 25.7 0.0 0.00 0.00 0.00 71 1054.6
20260506073209 11 67 11.3 0.0 0.00 0.00 0.00 71 1054.6
20260506073040 11 90 20.9 0.0 0.00 0.00 0.00 72 1054.5
20260506072927 11 90 29.0 0.0 0.00 0.00 0.00 72 1054.6
20260506072814 11 67 11.3 0.0 0.00 0.00 0.00 72 1054.6
20260506072703 11 45 14.5 0.0 0.00 0.00 0.00 73 1054.5
20260506072555 11 45 11.3 0.0 0.00 0.00 0.00 72 1054.6
20260506072434 11 45 8.0 0.0 0.00 0.00 0.00 72 1054.6
20260506072321 11 67 9.7 0.0 0.00 0.00 0.00 73 1054.5
20260506072208 12 45 12.9 0.0 0.00 0.00 0.00 73 1054.6
20260506072055 12 112 12.9 0.0 0.00 0.00 0.00 72 1054.6
20260506071941 12 45 16.1 0.0 0.00 0.00 0.00 72 1054.6
20260506071812 12 45 14.5 0.0 0.00 0.00 0.00 71 1054.6
20260506071651 12 45 12.9 0.0 0.00 0.00 0.00 72 1054.6
20260506071540 12 90 6.4 0.0 0.00 0.00 0.00 72 1054.6
20260506071434 12 45 8.0 0.0 0.00 0.00 0.00 72 1054.6
20260506071318 12 90 12.9 0.0 0.00 0.00 0.00 72 1054.6
20260506071206 12 90 11.3 0.0 0.00 0.00 0.00 72 1054.6
20260506071044 12 112 9.7 0.0 0.00 0.00 0.00 72 1054.6
20260506070923 12 45 17.7 0.0 0.00 0.00 0.00 72 1054.6
20260506070801 13 90 4.8 0.0 0.00 0.00 0.00 71 1054.6
20260506070640 13 112 20.9 0.0 0.00 0.00 0.00 71 1054.6
20260506070534 13 67 19.3 0.0 0.00 0.00 0.00 72 1054.6
20260506070420 13 45 19.3 0.0 0.00 0.00 0.00 72 1054.6
20260506070307 13 67 16.1 0.0 0.00 0.00 0.00 73 1054.6
20260506070202 12 90 9.7 0.0 0.00 0.00 0.00 72 1054.5
20260506062354 11 90 11.3 0.0 0.00 0.00 0.00 82 1054.4
20260506062242 11 45 11.3 0.0 0.00 0.00 0.00 82 1054.4
20260506062130 11 22 20.9 0.0 0.00 0.00 0.00 83 1054.4
20260506062016 11 90 4.8 0.0 0.00 0.00 0.00 83 1054.4
20260506061854 11 45 6.4 0.0 0.00 0.00 0.00 83 1054.3
20260506061724 11 112 1.6 0.0 0.00 0.00 0.00 84 1054.4
20260506061610 11 45 9.7 0.0 0.00 0.00 0.00 84 1054.4
20260506061504 11 22 11.3 0.0 0.00 0.00 0.00 84 1054.4
20260506061349 11 67 8.0 0.0 0.00 0.00 0.00 84 1054.4
20260506061228 11 22 9.7 0.0 0.00 0.00 0.00 85 1054.4
20260506061059 11 67 12.9 0.0 0.00 0.00 0.00 85 1054.3
20260506060946 11 22 8.0 0.0 0.00 0.00 0.00 85 1054.3
20260506060832 11 45 4.8 0.0 0.00 0.00 0.00 85 1054.3
20260506060714 11 22 9.7 0.0 0.00 0.00 0.00 85 1054.3
20260506060601 11 0 14.5 0.0 0.00 0.00 0.00 85 1054.3
20260506060453 11 45 11.3 0.0 0.00 0.00 0.00 86 1054.3
20260506060333 11 112 11.3 0.0 0.00 0.00 0.00 86 1054.4
20260506060218 11 90 6.4 0.0 0.00 0.00 0.00 86 1054.4
20260506051327 10 45 6.4 0.0 0.00 0.00 0.00 90 1054.3
20260506051208 10 67 6.4 0.0 0.00 0.00 0.00 90 1054.3
20260506051052 10 45 9.7 0.0 0.00 0.00 0.00 91 1054.3
20260506050939 10 45 16.1 0.0 0.00 0.00 0.00 91 1054.3
20260506050817 9 45 11.3 0.0 0.00 0.00 0.00 91 1054.3
20260506050656 9 45 4.8 0.0 0.00 0.00 0.00 91 1054.3
20260506050545 9 90 11.3 0.0 0.00 0.00 0.00 91 1054.3
20260506050438 9 45 12.9 0.0 0.00 0.00 0.00 91 1054.3
20260506050318 9 22 8.0 0.0 0.00 0.00 0.00 91 1054.3
20260506050204 9 22 4.8 0.0 0.00 0.00 0.00 91 1054.3
20260506045033 9 45 0.0 0.0 0.00 0.00 0.00 91 1054.4
20260506044912 9 45 14.5 0.0 0.00 0.00 0.00 91 1054.4
20260506044759 8 22 9.7 0.0 0.00 0.00 0.00 91 1054.4
20260506044639 9 67 3.2 0.0 0.00 0.00 0.00 91 1054.4
20260506044535 9 22 14.5 0.0 0.00 0.00 0.00 91 1054.5
20260506044429 8 67 0.0 0.0 0.00 0.00 0.00 91 1054.5
20260506044315 8 67 8.0 0.0 0.00 0.00 0.00 91 1054.5
20260506044202 8 67 9.7 0.0 0.00 0.00 0.00 92 1054.4
20260506044057 8 45 9.7 0.0 0.00 0.00 0.00 92 1054.4
20260506043954 8 45 9.7 0.0 0.00 0.00 0.00 92 1054.3
20260506043838 8 90 4.8 0.0 0.00 0.00 0.00 92 1054.4
20260506043725 8 67 6.4 0.0 0.00 0.00 0.00 92 1054.4
20260506043605 8 45 6.4 0.0 0.00 0.00 0.00 92 1054.4
20260506043500 8 45 9.7 0.0 0.00 0.00 0.00 92 1054.3
20260506043355 8 67 11.3 0.0 0.00 0.00 0.00 92 1054.3
20260506043250 8 45 9.7 0.0 0.00 0.00 0.00 92 1054.3
20260506043143 8 67 9.7 0.0 0.00 0.00 0.00 91 1054.3
20260506043025 8 67 6.4 0.0 0.00 0.00 0.00 91 1054.3
20260506042910 8 90 8.0 0.0 0.00 0.00 0.00 91 1054.4
20260506042758 8 67 3.2 0.0 0.00 0.00 0.00 91 1054.4
20260506042651 8 67 8.0 0.0 0.00 0.00 0.00 91 1054.4
20260506042533 8 67 6.4 0.0 0.00 0.00 0.00 91 1054.4
20260506042425 8 67 4.8 0.0 0.00 0.00 0.00 92 1054.4
20260506042313 8 22 6.4 0.0 0.00 0.00 0.00 92 1054.4
20260506042159 8 22 12.9 0.0 0.00 0.00 0.00 92 1054.4
20260506042048 8 45 8.0 0.0 0.00 0.00 0.00 92 1054.3
20260506041933 8 45 8.0 0.0 0.00 0.00 0.00 92 1054.5
20260506041812 8 45 6.4 0.0 0.00 0.00 0.00 92 1054.3
20260506041659 8 67 11.3 0.0 0.00 0.00 0.00 92 1054.4
20260506041546 8 45 0.0 0.0 0.00 0.00 0.00 92 1054.4
20260506041443 8 45 8.0 0.0 0.00 0.00 0.00 92 1054.3
20260506041330 8 22 16.1 0.0 0.00 0.00 0.00 92 1054.3
20260506041223 8 67 9.7 0.0 0.00 0.00 0.00 92 1054.3
20260506041117 8 45 3.2 0.0 0.00 0.00 0.00 92 1054.2
20260506041004 8 45 0.0 0.0 0.00 0.00 0.00 92 1054.4
20260506040847 8 67 0.0 0.0 0.00 0.00 0.00 92 1054.3
20260506040739 8 67 6.4 0.0 0.00 0.00 0.00 92 1054.3
20260506040633 8 67 14.5 0.0 0.00 0.00 0.00 92 1054.2
20260506040519 8 45 9.7 0.0 0.00 0.00 0.00 92 1054.3
20260506040359 8 67 9.7 0.0 0.00 0.00 0.00 92 1054.3
20260506040237 8 45 16.1 0.0 0.00 0.00 0.00 92 1054.3
20260506040126 8 45 9.7 0.0 0.00 0.00 0.00 92 1054.3
20260506040019 8 45 14.5 0.0 0.00 0.00 0.00 92 1054.3
20260506035906 8 45 11.3 0.0 0.00 0.00 0.00 92 1054.2
20260506035748 8 45 6.4 0.0 0.00 0.00 0.00 92 1054.4
20260506035640 8 45 12.9 0.0 0.00 0.00 0.00 92 1054.3
20260506035521 8 45 3.2 0.0 0.00 0.00 0.00 92 1054.3
20260506035413 8 45 11.3 0.0 0.00 0.00 0.00 92 1054.4
20260506035253 8 22 11.3 0.0 0.00 0.00 0.00 92 1054.3
20260506035150 8 67 0.0 0.0 0.00 0.00 0.00 92 1054.4
20260506035041 8 45 16.1 0.0 0.00 0.00 0.00 92 1054.3
20260506034930 8 90 6.4 0.0 0.00 0.00 0.00 92 1054.4
20260506034823 8 45 14.5 0.0 0.00 0.00 0.00 92 1054.4
20260506034703 8 45 1.6 0.0 0.00 0.00 0.00 92 1054.4
20260506034552 8 67 4.8 0.0 0.00 0.00 0.00 92 1054.5
20260506034445 8 45 6.4 0.0 0.00 0.00 0.00 92 1054.4
20260506034331 8 90 11.3 0.0 0.00 0.00 0.00 92 1054.5
20260506034203 8 90 11.3 0.0 0.00 0.00 0.00 92 1054.4
20260506034058 8 67 9.7 0.0 0.00 0.00 0.00 92 1054.4
20260506033944 8 90 0.0 0.0 0.00 0.00 0.00 92 1054.5
20260506033815 8 67 6.4 0.0 0.00 0.00 0.00 92 1054.4
20260506033701 8 112 4.8 0.0 0.00 0.00 0.00 92 1054.3
20260506033533 8 67 3.2 0.0 0.00 0.00 0.00 92 1054.3
20260506033430 8 90 8.0 0.0 0.00 0.00 0.00 92 1054.4
20260506033322 8 67 11.3 0.0 0.00 0.00 0.00 92 1054.4
20260506033201 8 45 9.7 0.0 0.00 0.00 0.00 92 1054.4
20260506033048 8 90 1.6 0.0 0.00 0.00 0.00 92 1054.5
20260506032938 8 90 0.0 0.0 0.00 0.00 0.00 92 1054.4
20260506032832 8 67 9.7 0.0 0.00 0.00 0.00 92 1054.5
20260506032725 8 45 9.7 0.0 0.00 0.00 0.00 92 1054.4
20260506032613 8 67 12.9 0.0 0.00 0.00 0.00 92 1054.4
20260506032507 8 112 12.9 0.0 0.00 0.00 0.00 92 1054.4
20260506032354 8 67 6.4 0.0 0.00 0.00 0.00 92 1054.5
20260506032241 8 67 9.7 0.0 0.00 0.00 0.00 92 1054.4
20260506032138 8 90 11.3 0.0 0.00 0.00 0.00 92 1054.5
20260506032030 8 45 12.9 0.0 0.00 0.00 0.00 92 1054.4
20260506031910 8 45 11.3 0.0 0.00 0.00 0.00 92 1054.6
20260506031758 8 67 0.0 0.0 0.00 0.00 0.00 92 1054.6
20260506031643 8 45 0.0 0.0 0.00 0.00 0.00 92 1054.6
20260506031523 8 22 11.3 0.0 0.00 0.00 0.00 92 1054.6
20260506031416 8 45 6.4 0.0 0.00 0.00 0.00 92 1054.6
20260506031255 8 45 8.0 0.0 0.00 0.00 0.00 92 1054.6
20260506031134 8 45 11.3 0.0 0.00 0.00 0.00 92 1054.5
20260506031020 8 67 0.0 0.0 0.00 0.00 0.00 92 1054.6
20260506030908 8 45 11.3 0.0 0.00 0.00 0.00 91 1054.6
20260506030757 8 45 4.8 0.0 0.00 0.00 0.00 91 1054.5
20260506030650 8 45 8.0 0.0 0.00 0.00 0.00 91 1054.5
20260506030522 8 22 8.0 0.0 0.00 0.00 0.00 91 1054.6
20260506030407 8 67 4.8 0.0 0.00 0.00 0.00 91 1054.6
20260506030255 8 45 9.7 0.0 0.00 0.00 0.00 91 1054.5
20260506030149 7 45 6.4 0.0 0.00 0.00 0.00 91 1054.5
20260506030037 7 45 3.2 0.0 0.00 0.00 0.00 91 1054.7
20260506025915 7 22 6.4 0.0 0.00 0.00 0.00 91 1054.5
20260506025802 7 45 6.4 0.0 0.00 0.00 0.00 91 1054.6
20260506025649 7 45 0.0 0.0 0.00 0.00 0.00 91 1054.6
20260506025527 7 67 3.2 0.0 0.00 0.00 0.00 91 1054.6
20260506025407 7 45 6.4 0.0 0.00 0.00 0.00 91 1054.7
20260506025301 7 45 0.0 0.0 0.00 0.00 0.00 91 1054.7
20260506025132 7 45 0.0 0.0 0.00 0.00 0.00 91 1054.7
20260506024858 7 45 0.0 0.0 0.00 0.00 0.00 91 1054.7
20260506024744 7 45 0.0 0.0 0.00 0.00 0.00 91 1054.7
20260506024626 7 45 0.0 0.0 0.00 0.00 0.00 91 1054.8
20260506024519 7 45 6.4 0.0 0.00 0.00 0.00 91 1054.8
20260506024408 7 45 0.0 0.0 0.00 0.00 0.00 91 1054.7
20260506024300 7 45 0.0 0.0 0.00 0.00 0.00 91 1054.8
20260506024147 7 45 0.0 0.0 0.00 0.00 0.00 90 1054.7
20260506024042 7 45 0.0 0.0 0.00 0.00 0.00 90 1054.7
20260506023921 7 45 0.0 0.0 0.00 0.00 0.00 90 1054.8
20260506023807 7 67 4.8 0.0 0.00 0.00 0.00 90 1054.7
20260506023654 7 45 8.0 0.0 0.00 0.00 0.00 90 1054.7
20260506023541 7 45 4.8 0.0 0.00 0.00 0.00 90 1054.7
20260506023420 7 45 0.0 0.0 0.00 0.00 0.00 90 1054.7
20260506023307 7 45 0.0 0.0 0.00 0.00 0.00 90 1054.8
20260506023155 7 45 0.0 0.0 0.00 0.00 0.00 90 1054.8
20260506023049 7 45 4.8 0.0 0.00 0.00 0.00 90 1054.8
20260506022938 7 45 0.0 0.0 0.00 0.00 0.00 90 1054.8
20260506022830 7 45 0.0 0.0 0.00 0.00 0.00 90 1054.7
20260506022709 7 45 6.4 0.0 0.00 0.00 0.00 90 1054.7
20260506022557 7 45 3.2 0.0 0.00 0.00 0.00 90 1054.7
20260506022444 7 45 4.8 0.0 0.00 0.00 0.00 90 1054.6
20260506022330 7 45 6.4 0.0 0.00 0.00 0.00 90 1054.7
20260506022217 7 67 3.2 0.0 0.00 0.00 0.00 90 1054.7
20260506022105 7 67 6.4 0.0 0.00 0.00 0.00 90 1054.7
20260506021959 7 45 3.2 0.0 0.00 0.00 0.00 90 1054.8
20260506021837 7 45 8.0 0.0 0.00 0.00 0.00 90 1054.6
20260506021724 7 45 4.8 0.0 0.00 0.00 0.00 90 1054.8
20260506021603 8 45 3.2 0.0 0.00 0.00 0.00 90 1054.7
20260506021451 7 45 6.4 0.0 0.00 0.00 0.00 90 1054.7
20260506021345 8 67 3.2 0.0 0.00 0.00 0.00 90 1054.6
20260506021224 8 45 4.8 0.0 0.00 0.00 0.00 90 1054.7
20260506021110 8 45 8.0 0.0 0.00 0.00 0.00 90 1054.7
20260506020950 8 45 0.0 0.0 0.00 0.00 0.00 90 1054.7
20260506020844 8 45 6.4 0.0 0.00 0.00 0.00 90 1054.8
20260506020731 8 45 3.2 0.0 0.00 0.00 0.00 90 1054.8
20260506020610 8 45 4.8 0.0 0.00 0.00 0.00 90 1054.8
20260506020448 8 67 4.8 0.0 0.00 0.00 0.00 90 1054.8
20260506020338 8 45 0.0 0.0 0.00 0.00 0.00 90 1054.8
20260506020231 8 67 0.0 0.0 0.00 0.00 0.00 90 1054.9
20260506020110 8 45 6.4 0.0 0.00 0.00 0.00 90 1054.8
20260506020005 8 45 9.7 0.0 0.00 0.00 0.00 90 1054.9
20260506015852 8 67 3.2 0.0 0.00 0.00 0.00 90 1054.8
20260506015748 8 67 0.0 0.0 0.00 0.00 0.00 90 1054.8
20260506015641 8 45 0.0 0.0 0.00 0.00 0.00 90 1054.9
20260506015520 8 45 6.4 0.0 0.00 0.00 0.00 90 1054.7
20260506015407 8 45 9.7 0.0 0.00 0.00 0.00 90 1054.8
20260506015305 8 67 0.0 0.0 0.00 0.00 0.00 90 1054.9
20260506015149 8 45 0.0 0.0 0.00 0.00 0.00 90 1054.9
20260506015027 8 67 0.0 0.0 0.00 0.00 0.00 90 1054.9
20260506014915 8 67 0.0 0.0 0.00 0.00 0.00 90 1054.8
20260506014809 8 67 0.0 0.0 0.00 0.00 0.00 90 1054.9
20260506014649 8 90 0.0 0.0 0.00 0.00 0.00 90 1054.9
20260506014536 8 45 3.2 0.0 0.00 0.00 0.00 90 1054.8
20260506014430 8 45 0.0 0.0 0.00 0.00 0.00 90 1054.8
20260506014316 8 90 4.8 0.0 0.00 0.00 0.00 90 1054.8
20260506014147 8 45 6.4 0.0 0.00 0.00 0.00 90 1054.9
20260506014030 8 90 0.0 0.0 0.00 0.00 0.00 90 1054.8
20260506013918 8 90 3.2 0.0 0.00 0.00 0.00 90 1054.8
20260506013658 8 45 0.0 0.0 0.00 0.00 0.00 90 1054.9
20260506013552 8 67 0.0 0.0 0.00 0.00 0.00 91 1054.8
20260506013438 8 45 6.4 0.0 0.00 0.00 0.00 91 1054.8
20260506013324 8 45 6.4 0.0 0.00 0.00 0.00 91 1054.8
20260506013211 8 45 8.0 0.0 0.00 0.00 0.00 91 1054.8
20260506013049 8 45 0.0 0.0 0.00 0.00 0.00 91 1054.8
20260506012928 8 45 0.0 0.0 0.00 0.00 0.00 91 1054.8
20260506012808 8 90 6.4 0.0 0.00 0.00 0.00 91 1054.8
20260506012702 8 45 4.8 0.0 0.00 0.00 0.00 91 1054.9
20260506012549 8 67 3.2 0.0 0.00 0.00 0.00 91 1054.9
20260506012436 8 90 0.0 0.0 0.00 0.00 0.00 90 1054.9
20260506012333 8 90 0.0 0.0 0.00 0.00 0.00 91 1054.9
20260506012228 8 90 0.0 0.0 0.00 0.00 0.00 90 1054.9
20260506012113 8 90 1.6 0.0 0.00 0.00 0.00 90 1054.9
20260506012000 8 90 0.0 0.0 0.00 0.00 0.00 90 1055.0
20260506011846 8 67 0.0 0.0 0.00 0.00 0.00 90 1054.9
20260506011725 8 67 4.8 0.0 0.00 0.00 0.00 90 1054.9
20260506011612 8 67 11.3 0.0 0.00 0.00 0.00 90 1055.0
20260506011458 8 67 0.0 0.0 0.00 0.00 0.00 90 1055.0
20260506011338 8 67 3.2 0.0 0.00 0.00 0.00 90 1054.9
20260506011225 8 67 8.0 0.0 0.00 0.00 0.00 90 1054.9
20260506011120 8 45 9.7 0.0 0.00 0.00 0.00 90 1054.8
20260506011007 8 22 9.7 0.0 0.00 0.00 0.00 90 1054.9
20260506010854 8 45 9.7 0.0 0.00 0.00 0.00 90 1054.9
20260506010748 8 45 12.9 0.0 0.00 0.00 0.00 90 1054.8
20260506010638 8 90 8.0 0.0 0.00 0.00 0.00 90 1054.9
20260506010532 8 45 9.7 0.0 0.00 0.00 0.00 90 1054.9
20260506010428 8 45 4.8 0.0 0.00 0.00 0.00 90 1054.9
20260506010320 8 45 0.0 0.0 0.00 0.00 0.00 90 1055.0
20260506005900 8 45 8.0 0.0 0.00 0.00 0.00 90 1054.9
20260506005747 8 67 12.9 0.0 0.00 0.00 0.00 90 1054.9
20260506005618 8 67 9.7 0.0 0.00 0.00 0.00 90 1055.0
20260506005505 8 22 8.0 0.0 0.00 0.00 0.00 90 1054.9
20260506005400 9 67 6.4 0.0 0.00 0.00 0.00 90 1054.9
20260506005254 9 45 6.4 0.0 0.00 0.00 0.00 90 1054.9
20260506005144 9 45 6.4 0.0 0.00 0.00 0.00 90 1054.9
20260506005028 9 45 8.0 0.0 0.00 0.00 0.00 90 1054.9
20260506004906 9 22 11.3 0.0 0.00 0.00 0.00 89 1054.9
20260506004746 9 45 8.0 0.0 0.00 0.00 0.00 89 1054.9
20260506004639 9 45 8.0 0.0 0.00 0.00 0.00 89 1055.0
20260506004459 9 45 4.8 0.0 0.00 0.00 0.00 89 1055.0
20260506004347 9 45 6.4 0.0 0.00 0.00 0.00 90 1054.9
20260506004240 9 45 9.7 0.0 0.00 0.00 0.00 90 1055.0
20260506004126 9 45 9.7 0.0 0.00 0.00 0.00 90 1055.0
20260506004019 9 45 9.7 0.0 0.00 0.00 0.00 90 1055.2
20260506003914 9 22 4.8 0.0 0.00 0.00 0.00 90 1055.1
20260506003801 9 45 8.0 0.0 0.00 0.00 0.00 89 1055.1
20260506003653 9 45 4.8 0.0 0.00 0.00 0.00 89 1055.2
20260506003538 9 45 4.8 0.0 0.00 0.00 0.00 89 1055.1
20260506003425 9 112 0.0 0.0 0.00 0.00 0.00 89 1055.2
20260506003319 9 45 6.4 0.0 0.00 0.00 0.00 89 1055.2
20260506003205 9 67 4.8 0.0 0.00 0.00 0.00 89 1055.2
20260506003058 9 67 8.0 0.0 0.00 0.00 0.00 89 1055.2
20260506002953 9 45 8.0 0.0 0.00 0.00 0.00 89 1055.2
20260506002847 9 90 0.0 0.0 0.00 0.00 0.00 89 1055.2
20260506002740 9 22 8.0 0.0 0.00 0.00 0.00 89 1055.2
20260506002634 9 90 8.0 0.0 0.00 0.00 0.00 89 1055.2
20260506002515 9 45 11.3 0.0 0.00 0.00 0.00 89 1055.2
20260506002409 10 45 4.8 0.0 0.00 0.00 0.00 89 1055.2
20260506002306 10 45 14.5 0.0 0.00 0.00 0.00 88 1055.2
20260506002155 10 45 11.3 0.0 0.00 0.00 0.00 88 1055.2
20260506002043 10 22 8.0 0.0 0.00 0.00 0.00 88 1055.2
20260506001936 10 22 9.7 0.0 0.00 0.00 0.00 88 1055.2
20260506001817 10 22 8.0 0.0 0.00 0.00 0.00 88 1055.2
20260506001655 10 22 12.9 0.0 0.00 0.00 0.00 88 1055.2
20260506001435 10 67 14.5 0.0 0.00 0.00 0.00 88 1055.2
20260506001329 10 22 6.4 0.0 0.00 0.00 0.00 88 1055.2
20260506001218 10 45 12.9 0.0 0.00 0.00 0.00 88 1055.2
20260506001112 10 22 9.7 0.0 0.00 0.00 0.00 88 1055.3
20260506000951 10 0 9.7 0.0 0.00 0.00 0.00 88 1055.4
20260506000836 10 22 16.1 0.0 0.00 0.00 0.00 88 1055.3
20260506000717 10 45 17.7 0.0 0.00 0.00 0.00 88 1055.3
20260506000610 10 45 17.7 0.0 0.00 0.00 0.00 88 1055.3
20260506000458 10 67 16.1 0.0 0.00 0.00 0.00 88 1055.2
20260506000350 10 45 16.1 0.0 0.00 0.00 0.00 88 1055.3
20260506000235 10 22 0.0 0.0 0.00 0.00 0.00 88 1055.4
20260506000115 10 67 0.0 0.0 0.00 0.00 0.00 88 1055.2
20260506000009 10 45 8.0 0.0 0.00 0.00 0.00 88 1055.2
20260505235855 10 67 11.3 0.0 0.00 0.00 0.00 87 1055.2
20260505235742 10 22 9.7 0.0 0.00 0.00 0.00 87 1055.2
20260505235629 10 22 16.1 0.0 0.00 0.00 0.00 87 1055.2
20260505235524 10 22 6.4 0.0 0.00 0.00 0.00 87 1055.2
20260505235413 10 45 11.3 0.0 0.00 0.00 0.00 87 1055.2
20260505235306 10 45 8.0 0.0 0.00 0.00 0.00 87 1055.2
20260505235153 10 45 17.7 0.0 0.00 0.00 0.00 87 1055.4
20260505235039 10 22 4.8 0.0 0.00 0.00 0.00 86 1055.3
20260505234926 10 45 17.7 0.0 0.00 0.00 0.00 86 1055.3
20260505234813 10 90 8.0 0.0 0.00 0.00 0.00 86 1055.3
20260505234700 10 45 12.9 0.0 0.00 0.00 0.00 86 1055.3
20260505234548 10 45 4.8 0.0 0.00 0.00 0.00 86 1055.4
20260505234434 10 22 4.8 0.0 0.00 0.00 0.00 86 1055.3
20260505234313 10 67 8.0 0.0 0.00 0.00 0.00 86 1055.4
20260505234200 10 45 4.8 0.0 0.00 0.00 0.00 86 1055.4
20260505234046 10 22 17.7 0.0 0.00 0.00 0.00 86 1055.4
20260505233936 10 22 8.0 0.0 0.00 0.00 0.00 86 1055.4
20260505233828 10 0 9.7 0.0 0.00 0.00 0.00 85 1055.4
20260505233707 10 45 9.7 0.0 0.00 0.00 0.00 85 1055.4
20260505233603 10 22 14.5 0.0 0.00 0.00 0.00 85 1055.4
20260505233457 10 22 9.7 0.0 0.00 0.00 0.00 85 1055.3
20260505233346 10 45 8.0 0.0 0.00 0.00 0.00 85 1055.4
20260505233239 10 45 0.0 0.0 0.00 0.00 0.00 85 1055.3
20260505233136 10 45 14.5 0.0 0.00 0.00 0.00 85 1055.3
20260505233028 10 45 9.7 0.0 0.00 0.00 0.00 85 1055.3
20260505232908 10 45 19.3 0.0 0.00 0.00 0.00 84 1055.4
20260505232756 10 45 6.4 0.0 0.00 0.00 0.00 84 1055.4
20260505232649 10 45 14.5 0.0 0.00 0.00 0.00 84 1055.4
20260505232543 10 45 27.4 0.0 0.00 0.00 0.00 84 1055.4
20260505232438 10 22 9.7 0.0 0.00 0.00 0.00 83 1055.4
20260505232331 10 45 6.4 0.0 0.00 0.00 0.00 83 1055.4
20260505232226 10 22 11.3 0.0 0.00 0.00 0.00 83 1055.4
20260505232120 10 22 11.3 0.0 0.00 0.00 0.00 83 1055.3
20260505231959 10 0 8.0 0.0 0.00 0.00 0.00 83 1055.4
20260505231839 10 67 3.2 0.0 0.00 0.00 0.00 83 1055.4
20260505231733 10 45 6.4 0.0 0.00 0.00 0.00 83 1055.4
20260505231612 10 45 8.0 0.0 0.00 0.00 0.00 82 1055.4
20260505231459 10 22 9.7 0.0 0.00 0.00 0.00 82 1055.4
20260505231346 10 45 9.7 0.0 0.00 0.00 0.00 82 1055.4
20260505231240 10 45 6.4 0.0 0.00 0.00 0.00 82 1055.4
20260505231135 10 0 8.0 0.0 0.00 0.00 0.00 82 1055.4
20260505231029 10 45 14.5 0.0 0.00 0.00 0.00 82 1055.5
20260505230924 10 45 17.7 0.0 0.00 0.00 0.00 82 1055.4
20260505230818 10 22 6.4 0.0 0.00 0.00 0.00 82 1055.5
20260505230705 10 45 3.2 0.0 0.00 0.00 0.00 82 1055.6
20260505230544 10 90 19.3 0.0 0.00 0.00 0.00 82 1055.5
20260505230431 10 22 9.7 0.0 0.00 0.00 0.00 82 1055.5
20260505230317 10 22 9.7 0.0 0.00 0.00 0.00 82 1055.5
20260505230204 10 0 14.5 0.0 0.00 0.00 0.00 82 1055.5
20260505230052 10 22 8.0 0.0 0.00 0.00 0.00 82 1055.6
20260505225946 10 45 0.0 0.0 0.00 0.00 0.00 82 1055.5
20260505225833 10 45 11.3 0.0 0.00 0.00 0.00 82 1055.6
20260505225727 10 0 11.3 0.0 0.00 0.00 0.00 82 1055.6
20260505225622 10 0 9.7 0.0 0.00 0.00 0.00 82 1055.6
20260505225516 10 22 9.7 0.0 0.00 0.00 0.00 82 1055.6
20260505225410 10 22 4.8 0.0 0.00 0.00 0.00 82 1055.6
20260505225250 10 45 19.3 0.0 0.00 0.00 0.00 82 1055.6
20260505225143 10 45 9.7 0.0 0.00 0.00 0.00 82 1055.6
20260505225030 10 45 8.0 0.0 0.00 0.00 0.00 82 1055.6
20260505224924 10 67 0.0 0.0 0.00 0.00 0.00 83 1055.6
20260505224810 10 45 9.7 0.0 0.00 0.00 0.00 83 1055.7
20260505224705 10 22 9.7 0.0 0.00 0.00 0.00 83 1055.6
20260505224559 10 67 16.1 0.0 0.00 0.00 0.00 83 1055.7
20260505224453 10 22 12.9 0.0 0.00 0.00 0.00 83 1055.7
20260505224333 10 67 16.1 0.0 0.00 0.00 0.00 83 1055.7
20260505224226 10 90 12.9 0.0 0.00 0.00 0.00 83 1055.7
20260505224112 10 22 4.8 0.0 0.00 0.00 0.00 83 1055.7
20260505223958 10 45 9.7 0.0 0.00 0.00 0.00 83 1055.8
20260505223853 10 45 6.4 0.0 0.00 0.00 0.00 83 1055.7
20260505223746 10 45 8.0 0.0 0.00 0.00 0.00 83 1055.8
20260505223641 10 45 9.7 0.0 0.00 0.00 0.00 83 1055.8
20260505223534 10 45 12.9 0.0 0.00 0.00 0.00 83 1055.7
20260505223428 10 67 9.7 0.0 0.00 0.00 0.00 83 1055.7
20260505223314 10 22 3.2 0.0 0.00 0.00 0.00 83 1055.8
20260505223200 10 22 14.5 0.0 0.00 0.00 0.00 83 1055.7
20260505223038 10 45 8.0 0.0 0.00 0.00 0.00 84 1055.8
20260505222923 10 45 6.4 0.0 0.00 0.00 0.00 84 1055.8
20260505222801 10 67 11.3 0.0 0.00 0.00 0.00 84 1055.7
20260505222657 10 0 9.7 0.0 0.00 0.00 0.00 84 1055.8
20260505222548 10 45 9.7 0.0 0.00 0.00 0.00 84 1055.7
20260505222435 10 45 6.4 0.0 0.00 0.00 0.00 84 1055.7
20260505222328 10 45 8.0 0.0 0.00 0.00 0.00 84 1055.7
20260505222223 10 45 4.8 0.0 0.00 0.00 0.00 84 1055.7
20260505222116 10 22 9.7 0.0 0.00 0.00 0.00 84 1055.7
20260505222011 10 0 9.7 0.0 0.00 0.00 0.00 84 1055.7
20260505221904 10 22 8.0 0.0 0.00 0.00 0.00 84 1055.8
20260505221759 10 90 8.0 0.0 0.00 0.00 0.00 84 1055.7
20260505221654 10 90 14.5 0.0 0.00 0.00 0.00 84 1055.8
20260505221548 10 45 3.2 0.0 0.00 0.00 0.00 84 1055.8
20260505221435 10 45 6.4 0.0 0.00 0.00 0.00 84 1055.7
20260505221323 10 45 14.5 0.0 0.00 0.00 0.00 84 1055.7
20260505221219 10 45 9.7 0.0 0.00 0.00 0.00 85 1055.7
20260505221104 10 45 20.9 0.0 0.00 0.00 0.00 85 1055.7
20260505220951 10 45 29.0 0.0 0.00 0.00 0.00 85 1055.7
20260505220838 10 112 9.7 0.0 0.00 0.00 0.00 85 1055.7
20260505220716 10 22 9.7 0.0 0.00 0.00 0.00 85 1055.7
20260505220605 10 337 9.7 0.0 0.00 0.00 0.00 85 1055.7
20260505220458 10 22 9.7 0.0 0.00 0.00 0.00 85 1055.8
20260505220329 10 22 14.5 0.0 0.00 0.00 0.00 85 1055.8
20260505220216 10 22 9.7 0.0 0.00 0.00 0.00 85 1055.8
20260505220110 10 22 9.7 0.0 0.00 0.00 0.00 85 1055.8
20260505215941 10 67 17.7 0.0 0.00 0.00 0.00 85 1055.8
20260505215828 10 67 12.9 0.0 0.00 0.00 0.00 85 1055.8
20260505215723 10 45 8.0 0.0 0.00 0.00 0.00 85 1055.8
20260505215554 10 45 6.4 0.0 0.00 0.00 0.00 85 1055.8
20260505215441 10 45 6.4 0.0 0.00 0.00 0.00 85 1055.9
20260505215336 10 22 9.7 0.0 0.00 0.00 0.00 85 1055.9
20260505215224 10 0 20.9 0.0 0.00 0.00 0.00 85 1055.9
20260505215119 10 67 8.0 0.0 0.00 0.00 0.00 85 1055.8
20260505215013 10 22 11.3 0.0 0.00 0.00 0.00 85 1055.9
20260505214909 10 22 4.8 0.0 0.00 0.00 0.00 85 1055.9
20260505214803 10 45 8.0 0.0 0.00 0.00 0.00 85 1055.9
20260505214657 10 22 0.0 0.0 0.00 0.00 0.00 85 1056.0
20260505214545 10 22 14.5 0.0 0.00 0.00 0.00 85 1055.9
20260505214434 10 22 9.7 0.0 0.00 0.00 0.00 84 1056.0
20260505214326 10 45 6.4 0.0 0.00 0.00 0.00 84 1056.0
20260505214001 10 45 8.0 0.0 0.00 0.00 0.00 84 1056.0
20260505213851 10 45 3.2 0.0 0.00 0.00 0.00 84 1055.9
20260505213635 10 22 9.7 0.0 0.00 0.00 0.00 84 1056.0
20260505213521 10 45 12.9 0.0 0.00 0.00 0.00 84 1056.0
20260505213408 10 45 9.7 0.0 0.00 0.00 0.00 84 1056.0
20260505213254 10 67 16.1 0.0 0.00 0.00 0.00 84 1056.0
20260505213141 10 45 6.4 0.0 0.00 0.00 0.00 85 1056.0
20260505213027 10 45 9.7 0.0 0.00 0.00 0.00 85 1056.0
20260505212907 10 67 8.0 0.0 0.00 0.00 0.00 85 1056.1
20260505212754 10 67 8.0 0.0 0.00 0.00 0.00 85 1056.0
20260505212641 10 45 4.8 0.0 0.00 0.00 0.00 85 1056.0
20260505212528 10 22 16.1 0.0 0.00 0.00 0.00 85 1056.0
20260505212414 10 337 6.4 0.0 0.00 0.00 0.00 85 1056.0
20260505212305 10 45 8.0 0.0 0.00 0.00 0.00 85 1056.0
20260505212148 10 45 4.8 0.0 0.00 0.00 0.00 85 1056.0
20260505212036 10 22 4.8 0.0 0.00 0.00 0.00 85 1056.0
20260505211923 10 22 0.0 0.0 0.00 0.00 0.00 85 1056.0
20260505211817 10 45 8.0 0.0 0.00 0.00 0.00 85 1056.0
20260505211712 10 67 4.8 0.0 0.00 0.00 0.00 84 1056.0
20260505211601 10 45 12.9 0.0 0.00 0.00 0.00 84 1056.1
20260505211454 10 45 11.3 0.0 0.00 0.00 0.00 84 1056.1
20260505211333 10 45 14.5 0.0 0.00 0.00 0.00 84 1056.0
20260505211220 10 22 3.2 0.0 0.00 0.00 0.00 84 1056.1
20260505211114 10 22 14.5 0.0 0.00 0.00 0.00 85 1056.1
20260505210953 10 45 8.0 0.0 0.00 0.00 0.00 85 1056.1
20260505210840 10 45 19.3 0.0 0.00 0.00 0.00 85 1056.1
20260505210728 10 0 6.4 0.0 0.00 0.00 0.00 85 1056.1
20260505210622 10 45 8.0 0.0 0.00 0.00 0.00 85 1056.0
20260505210508 10 22 16.1 0.0 0.00 0.00 0.00 85 1056.1
20260505210348 10 45 9.7 0.0 0.00 0.00 0.00 85 1056.1
20260505210235 10 45 16.1 0.0 0.00 0.00 0.00 85 1056.1
20260505210129 10 22 9.7 0.0 0.00 0.00 0.00 85 1056.0
20260505210008 10 22 8.0 0.0 0.00 0.00 0.00 85 1056.0
20260505205847 10 0 4.8 0.0 0.00 0.00 0.00 85 1056.1
20260505205729 10 67 0.0 0.0 0.00 0.00 0.00 85 1056.1
20260505205622 10 22 4.8 0.0 0.00 0.00 0.00 85 1056.1
20260505205509 10 67 19.3 0.0 0.00 0.00 0.00 85 1056.1
20260505205403 10 45 8.0 0.0 0.00 0.00 0.00 85 1056.1
20260505205250 10 45 11.3 0.0 0.00 0.00 0.00 85 1056.1
20260505205144 10 45 11.3 0.0 0.00 0.00 0.00 85 1056.1
20260505205024 10 22 3.2 0.0 0.00 0.00 0.00 85 1056.1
20260505204911 10 45 20.9 0.0 0.00 0.00 0.00 85 1056.0
20260505204806 10 22 11.3 0.0 0.00 0.00 0.00 85 1056.1
20260505204653 10 45 20.9 0.0 0.00 0.00 0.00 85 1056.0
20260505204548 10 22 9.7 0.0 0.00 0.00 0.00 85 1056.0
20260505204442 10 45 8.0 0.0 0.00 0.00 0.00 85 1056.1
20260505204329 10 22 11.3 0.0 0.00 0.00 0.00 85 1056.0
20260505204217 10 90 11.3 0.0 0.00 0.00 0.00 85 1056.0
20260505204102 10 0 9.7 0.0 0.00 0.00 0.00 85 1055.9
20260505203950 10 22 11.3 0.0 0.00 0.00 0.00 85 1056.1
20260505203837 10 22 16.1 0.0 0.00 0.00 0.00 85 1056.0
20260505203732 10 0 6.4 0.0 0.00 0.00 0.00 85 1056.1
20260505203618 10 22 8.0 0.0 0.00 0.00 0.00 85 1056.1
20260505203458 10 0 8.0 0.0 0.00 0.00 0.00 85 1056.0
20260505203352 10 45 17.7 0.0 0.00 0.00 0.00 85 1056.0
20260505203241 10 0 17.7 0.0 0.00 0.00 0.00 85 1056.1
20260505203126 10 67 8.0 0.0 0.00 0.00 0.00 85 1056.1
20260505203015 10 45 19.3 0.0 0.00 0.00 0.00 85 1056.1
20260505202908 10 45 8.0 0.0 0.00 0.00 0.00 85 1056.2
20260505202803 10 0 0.0 0.0 0.00 0.00 0.00 84 1056.1
20260505202642 10 45 9.7 0.0 0.00 0.00 0.00 84 1056.1
20260505202537 10 0 12.9 0.0 0.00 0.00 0.00 84 1056.2
20260505202434 10 45 16.1 0.0 0.00 0.00 0.00 84 1056.2
20260505202318 10 22 6.4 0.0 0.00 0.00 0.00 84 1056.2
20260505202205 10 22 8.0 0.0 0.00 0.00 0.00 84 1056.1
20260505202058 10 22 19.3 0.0 0.00 0.00 0.00 84 1056.2
20260505201951 10 67 24.1 0.0 0.00 0.00 0.00 84 1056.2
20260505201839 10 22 16.1 0.0 0.00 0.00 0.00 84 1056.2
20260505201732 10 45 6.4 0.0 0.00 0.00 0.00 84 1056.2
20260505201612 10 67 3.2 0.0 0.00 0.00 0.00 84 1056.3
20260505201506 10 0 4.8 0.0 0.00 0.00 0.00 84 1056.3
20260505201352 10 22 6.4 0.0 0.00 0.00 0.00 85 1056.2
20260505201127 10 22 8.0 0.0 0.00 0.00 0.00 85 1056.2
20260505201014 10 45 16.1 0.0 0.00 0.00 0.00 84 1056.2
20260505200902 10 22 8.0 0.0 0.00 0.00 0.00 84 1056.2
20260505200754 10 22 6.4 0.0 0.00 0.00 0.00 84 1056.2
20260505200640 10 22 4.8 0.0 0.00 0.00 0.00 84 1056.2
20260505200534 10 67 11.3 0.0 0.00 0.00 0.00 84 1056.2
20260505200428 10 112 17.7 0.0 0.00 0.00 0.00 84 1056.2
20260505200322 10 22 8.0 0.0 0.00 0.00 0.00 84 1056.2
20260505200216 10 0 12.9 0.0 0.00 0.00 0.00 83 1056.2
20260505200109 10 67 14.5 0.0 0.00 0.00 0.00 83 1056.1
20260505200003 10 45 9.7 0.0 0.00 0.00 0.00 83 1056.2
20260505195849 10 22 9.7 0.0 0.00 0.00 0.00 83 1056.2
20260505195735 10 45 3.2 0.0 0.00 0.00 0.00 83 1056.1
20260505195621 10 45 12.9 0.0 0.00 0.00 0.00 83 1056.2
20260505195506 10 0 12.9 0.0 0.00 0.00 0.00 83 1056.2
20260505195347 10 67 6.4 0.0 0.00 0.00 0.00 83 1056.2
20260505195238 10 0 6.4 0.0 0.00 0.00 0.00 83 1056.3
20260505195118 10 45 9.7 0.0 0.00 0.00 0.00 83 1056.3
20260505195012 10 337 4.8 0.0 0.00 0.00 0.00 82 1056.2
20260505194802 10 22 3.2 0.0 0.00 0.00 0.00 82 1056.3
20260505194652 10 67 9.7 0.0 0.00 0.00 0.00 82 1056.3
20260505194546 10 67 9.7 0.0 0.00 0.00 0.00 82 1056.3
20260505194440 10 22 8.0 0.0 0.00 0.00 0.00 82 1056.3
20260505194327 10 45 22.5 0.0 0.00 0.00 0.00 82 1056.3
20260505194221 10 45 19.3 0.0 0.00 0.00 0.00 82 1056.2
20260505194107 10 22 6.4 0.0 0.00 0.00 0.00 82 1056.3
20260505193954 10 45 11.3 0.0 0.00 0.00 0.00 82 1056.2
20260505193850 10 45 16.1 0.0 0.00 0.00 0.00 82 1056.3
20260505193744 10 45 12.9 0.0 0.00 0.00 0.00 82 1056.3
20260505193623 10 22 9.7 0.0 0.00 0.00 0.00 82 1056.3
20260505193502 10 0 14.5 0.0 0.00 0.00 0.00 82 1056.3
20260505193333 10 45 17.7 0.0 0.00 0.00 0.00 82 1056.2
20260505193220 10 22 11.3 0.0 0.00 0.00 0.00 82 1056.3
20260505193106 10 45 9.7 0.0 0.00 0.00 0.00 82 1056.2
20260505192945 10 22 6.4 0.0 0.00 0.00 0.00 82 1056.2
20260505192830 10 22 9.7 0.0 0.00 0.00 0.00 82 1056.2
20260505192705 10 22 16.1 0.0 0.00 0.00 0.00 82 1056.2
20260505192557 10 337 9.7 0.0 0.00 0.00 0.00 82 1056.2
20260505192443 10 45 16.1 0.0 0.00 0.00 0.00 82 1056.2
20260505192336 10 45 11.3 0.0 0.00 0.00 0.00 82 1056.2
20260505192159 10 45 22.5 0.0 0.00 0.00 0.00 81 1056.2
20260505192054 10 22 11.3 0.0 0.00 0.00 0.00 81 1056.2
20260505191947 10 0 14.5 0.0 0.00 0.00 0.00 81 1056.2
20260505191820 10 22 12.9 0.0 0.00 0.00 0.00 81 1056.1
20260505191713 10 22 20.9 0.0 0.00 0.00 0.00 81 1056.3
20260505191559 10 337 11.3 0.0 0.00 0.00 0.00 80 1056.2
20260505191452 10 22 6.4 0.0 0.00 0.00 0.00 80 1056.2
20260505191326 10 22 11.3 0.0 0.00 0.00 0.00 81 1056.2
20260505191220 10 337 9.7 0.0 0.00 0.00 0.00 81 1056.2
20260505191113 10 22 16.1 0.0 0.00 0.00 0.00 81 1056.2
20260505190959 10 22 16.1 0.0 0.00 0.00 0.00 81 1056.2
20260505190829 10 45 11.3 0.0 0.00 0.00 0.00 81 1056.2
20260505190715 10 0 8.0 0.0 0.00 0.00 0.00 82 1056.2
20260505190608 10 45 12.9 0.0 0.00 0.00 0.00 82 1056.1
20260505190455 10 45 16.1 0.0 0.00 0.00 0.00 82 1056.1
20260505190351 10 45 12.9 0.0 0.00 0.00 0.00 82 1056.2
20260505190245 10 45 9.7 0.0 0.00 0.00 0.00 82 1056.1
20260505190120 10 45 12.9 0.0 0.00 0.00 0.00 82 1056.1
20260505190007 10 45 16.1 0.0 0.00 0.00 0.00 82 1056.1
20260505185854 10 22 9.7 0.0 0.00 0.00 0.00 82 1056.1
20260505185746 10 0 11.3 0.0 0.00 0.00 0.00 82 1056.1
20260505185627 10 45 14.5 0.0 0.00 0.00 0.00 82 1056.1
20260505185519 10 0 11.3 0.0 0.00 0.00 0.00 82 1056.1
20260505185406 10 45 17.7 0.0 0.00 0.00 0.00 82 1056.0
20260505185259 10 45 4.8 0.0 0.00 0.00 0.00 82 1056.1
20260505185130 10 0 9.7 0.0 0.00 0.00 0.00 82 1056.0
20260505185017 10 22 12.9 0.0 0.00 0.00 0.00 82 1056.0
20260505184911 10 0 9.7 0.0 0.00 0.00 0.00 82 1056.1
20260505184806 10 67 19.3 0.0 0.00 0.00 0.00 82 1056.1
20260505184653 10 0 16.1 0.0 0.00 0.00 0.00 83 1056.0
20260505184547 10 45 9.7 0.0 0.00 0.00 0.00 83 1056.0
20260505184441 10 45 22.5 0.0 0.00 0.00 0.00 83 1056.1
20260505184320 10 22 14.5 0.0 0.00 0.00 0.00 83 1056.0
20260505184211 10 22 0.0 0.0 0.00 0.00 0.00 83 1056.1
20260505184057 10 22 3.2 0.0 0.00 0.00 0.00 83 1056.0
20260505183952 10 22 9.7 0.0 0.00 0.00 0.00 83 1056.0
20260505183845 10 22 6.4 0.0 0.00 0.00 0.00 83 1056.0
20260505183730 10 22 8.0 0.0 0.00 0.00 0.00 82 1056.0
20260505183552 10 45 17.7 0.0 0.00 0.00 0.00 82 1055.9
20260505183433 10 45 14.5 0.0 0.00 0.00 0.00 83 1055.9
20260505183324 10 22 9.7 0.0 0.00 0.00 0.00 83 1056.0
20260505183210 10 45 12.9 0.0 0.00 0.00 0.00 83 1055.9
20260505183103 10 22 6.4 0.0 0.00 0.00 0.00 83 1056.0
20260505182936 10 22 0.0 0.0 0.00 0.00 0.00 83 1056.0
20260505182829 10 22 14.5 0.0 0.00 0.00 0.00 83 1055.9
20260505182724 10 22 6.4 0.0 0.00 0.00 0.00 83 1056.0
20260505182615 10 0 4.8 0.0 0.00 0.00 0.00 83 1055.9
20260505182501 10 0 9.7 0.0 0.00 0.00 0.00 83 1056.0
20260505182355 10 22 20.9 0.0 0.00 0.00 0.00 83 1056.0
20260505182250 10 0 12.9 0.0 0.00 0.00 0.00 83 1056.0
20260505182143 10 22 14.5 0.0 0.00 0.00 0.00 83 1055.9
20260505182036 10 45 9.7 0.0 0.00 0.00 0.00 83 1056.0
20260505181922 10 67 14.5 0.0 0.00 0.00 0.00 83 1056.0
20260505181802 10 45 9.7 0.0 0.00 0.00 0.00 83 1056.0
20260505181654 10 45 11.3 0.0 0.00 0.00 0.00 83 1055.9
20260505181539 10 67 22.5 0.0 0.00 0.00 0.00 83 1056.0
20260505181418 10 67 6.4 0.0 0.00 0.00 0.00 83 1055.9
20260505181313 10 45 19.3 0.0 0.00 0.00 0.00 83 1055.9
20260505181205 10 0 6.4 0.0 0.00 0.00 0.00 83 1055.9
20260505181054 10 45 17.7 0.0 0.00 0.00 0.00 83 1056.0
20260505180945 10 0 9.7 0.0 0.00 0.00 0.00 83 1056.0
20260505180831 10 315 11.3 0.0 0.00 0.00 0.00 83 1056.0
20260505180725 10 22 16.1 0.0 0.00 0.00 0.00 83 1056.0
20260505180618 10 0 8.0 0.0 0.00 0.00 0.00 83 1056.0
20260505180504 10 22 11.3 0.0 0.00 0.00 0.00 83 1056.0
20260505180352 10 45 12.9 0.0 0.00 0.00 0.00 83 1056.0
20260505180244 10 67 14.5 0.0 0.00 0.00 0.00 83 1056.0
20260505180130 10 0 20.9 0.0 0.00 0.00 0.00 83 1056.0
20260505180017 10 0 20.9 0.0 0.00 0.00 0.00 82 1056.0
20260505175857 10 45 12.9 0.0 0.00 0.00 0.00 82 1056.0
20260505175749 10 0 14.5 0.0 0.00 0.00 0.00 82 1056.0
20260505175642 10 22 8.0 0.0 0.00 0.00 0.00 82 1056.0
20260505175528 10 0 11.3 0.0 0.00 0.00 0.00 82 1056.1
20260505175414 10 0 17.7 0.0 0.00 0.00 0.00 82 1056.1
20260505175300 10 22 9.7 0.0 0.00 0.00 0.00 82 1056.0
20260505175138 10 0 6.4 0.0 0.00 0.00 0.00 82 1056.0
20260505175025 10 22 14.5 0.0 0.00 0.00 0.00 82 1056.0
20260505174912 10 0 16.1 0.0 0.00 0.00 0.00 82 1055.9
20260505174759 10 337 9.7 0.0 0.00 0.00 0.00 81 1056.0
20260505174638 10 22 12.9 0.0 0.00 0.00 0.00 81 1056.0
20260505174518 10 22 6.4 0.0 0.00 0.00 0.00 81 1056.1
20260505174408 10 0 9.7 0.0 0.00 0.00 0.00 81 1056.0
20260505174051 10 0 3.2 0.0 0.00 0.00 0.00 81 1056.1
20260505173936 10 22 12.9 0.0 0.00 0.00 0.00 81 1056.0
20260505173814 10 22 9.7 0.0 0.00 0.00 0.00 81 1056.1
20260505173701 10 22 11.3 0.0 0.00 0.00 0.00 81 1056.1
20260505173549 10 90 19.3 0.0 0.00 0.00 0.00 81 1056.0
20260505173443 10 0 20.9 0.0 0.00 0.00 0.00 81 1056.1
20260505173330 10 45 9.7 0.0 0.00 0.00 0.00 82 1056.1
20260505173225 10 337 8.0 0.0 0.00 0.00 0.00 82 1056.1
20260505173115 10 22 9.7 0.0 0.00 0.00 0.00 82 1056.1
20260505173005 10 45 6.4 0.0 0.00 0.00 0.00 82 1056.1
20260505172846 10 0 16.1 0.0 0.00 0.00 0.00 82 1056.1
20260505172732 10 337 11.3 0.0 0.00 0.00 0.00 82 1056.1
20260505172603 10 45 16.1 0.0 0.00 0.00 0.00 82 1056.1
20260505172434 10 0 9.7 0.0 0.00 0.00 0.00 82 1056.2
20260505172320 10 22 11.3 0.0 0.00 0.00 0.00 82 1056.2
20260505172159 10 0 9.7 0.0 0.00 0.00 0.00 82 1056.2
20260505172037 10 22 6.4 0.0 0.00 0.00 0.00 81 1056.2
20260505171919 10 0 9.7 0.0 0.00 0.00 0.00 81 1056.3
20260505171810 10 22 24.1 0.0 0.00 0.00 0.00 81 1056.3
20260505171649 10 0 17.7 0.0 0.00 0.00 0.00 81 1056.2
20260505171544 10 67 14.5 0.0 0.00 0.00 0.00 81 1056.2
20260505171429 10 0 9.7 0.0 0.00 0.00 0.00 81 1056.3
20260505171300 10 337 11.3 0.0 0.00 0.00 0.00 81 1056.2
20260505171139 10 0 16.1 0.0 0.00 0.00 0.00 81 1056.3
20260505171020 10 22 9.7 0.0 0.00 0.00 0.00 81 1056.2
20260505170913 10 337 12.9 0.0 0.00 0.00 0.00 81 1056.3
20260505170744 10 0 12.9 0.0 0.00 0.00 0.00 81 1056.3
20260505170631 10 22 9.7 0.0 0.00 0.00 0.00 81 1056.2
20260505170524 10 0 19.3 0.0 0.00 0.00 0.00 80 1056.3
20260505170405 10 337 22.5 0.0 0.00 0.00 0.00 80 1056.2
20260505170251 10 67 9.7 0.0 0.00 0.00 0.00 80 1056.3
20260505170138 10 22 8.0 0.0 0.00 0.00 0.00 80 1056.3
20260505170025 10 22 14.5 0.0 0.00 0.00 0.00 80 1056.4
20260505165904 10 45 16.1 0.0 0.00 0.00 0.00 80 1056.3
20260505165744 10 22 17.7 0.0 0.00 0.00 0.00 80 1056.2
20260505165631 11 0 24.1 0.0 0.00 0.00 0.00 80 1056.2
20260505165524 11 45 12.9 0.0 0.00 0.00 0.00 80 1056.2
20260505165413 11 22 6.4 0.0 0.00 0.00 0.00 80 1056.2
20260505165308 11 0 11.3 0.0 0.00 0.00 0.00 80 1056.2
20260505165204 11 337 14.5 0.0 0.00 0.00 0.00 79 1056.2
20260505165056 11 45 14.5 0.0 0.00 0.00 0.00 79 1056.2
20260505164934 11 22 9.7 0.0 0.00 0.00 0.00 79 1056.3
20260505164814 11 0 11.3 0.0 0.00 0.00 0.00 80 1056.2
20260505164701 11 45 9.7 0.0 0.00 0.00 0.00 80 1056.2
20260505164548 11 22 17.7 0.0 0.00 0.00 0.00 79 1056.3
20260505164436 11 22 20.9 0.0 0.00 0.00 0.00 79 1056.2
20260505164332 11 22 8.0 0.0 0.00 0.00 0.00 80 1056.3
20260505164223 11 22 9.7 0.0 0.00 0.00 0.00 80 1056.3
20260505164057 11 0 8.0 0.0 0.00 0.00 0.00 80 1056.3
20260505163949 11 0 16.1 0.0 0.00 0.00 0.00 80 1056.3
20260505163828 11 22 6.4 0.0 0.00 0.00 0.00 80 1056.3
20260505163700 11 0 9.7 0.0 0.00 0.00 0.00 79 1056.3
20260505163554 11 0 27.4 0.0 0.00 0.00 0.00 79 1056.3
20260505163434 11 0 14.5 0.0 0.00 0.00 0.00 79 1056.3
20260505163328 11 22 6.4 0.0 0.00 0.00 0.00 79 1056.3
20260505163207 11 0 14.5 0.0 0.00 0.00 0.00 79 1056.3
20260505163046 11 0 22.5 0.0 0.00 0.00 0.00 79 1056.3
20260505162932 11 337 12.9 0.0 0.00 0.00 0.00 78 1056.3
20260505162811 11 45 1.6 0.0 0.00 0.00 0.00 78 1056.3
20260505162657 11 22 16.1 0.0 0.00 0.00 0.00 78 1056.3
20260505162542 11 67 16.1 0.0 0.00 0.00 0.00 78 1056.3
20260505162430 11 0 14.5 0.0 0.00 0.00 0.00 78 1056.3
20260505162323 11 45 17.7 0.0 0.00 0.00 0.00 78 1056.4
20260505162209 11 45 22.5 0.0 0.00 0.00 0.00 78 1056.4
20260505162055 11 45 8.0 0.0 0.00 0.00 0.00 78 1056.3
20260505161925 11 0 9.7 0.0 0.00 0.00 0.00 78 1056.3
20260505161811 11 0 6.4 0.0 0.00 0.00 0.00 78 1056.4
20260505161655 11 22 0.0 0.0 0.00 0.00 0.00 78 1056.4
20260505161534 11 45 14.5 0.0 0.00 0.00 0.00 77 1056.4
20260505161419 11 45 9.7 0.0 0.00 0.00 0.00 77 1056.4
20260505161305 11 22 17.7 0.0 0.00 0.00 0.00 78 1056.3
20260505161150 11 0 17.7 0.0 0.00 0.00 0.00 77 1056.4
20260505161029 11 0 8.0 0.0 0.00 0.00 0.00 77 1056.4
20260505160914 11 22 25.7 0.0 0.00 0.00 0.00 77 1056.5
20260505160755 11 22 11.3 0.0 0.00 0.00 0.00 77 1056.4
20260505160646 11 22 9.7 0.0 0.00 0.00 0.00 77 1056.4
20260505160532 11 67 17.7 0.0 0.00 0.00 0.00 76 1056.5
20260505160417 11 0 11.3 0.0 0.00 0.00 0.00 76 1056.5
20260505160255 11 45 8.0 0.0 0.00 0.00 0.00 75 1056.4
20260505160142 11 22 22.5 0.0 0.00 0.00 0.00 75 1056.5
20260505153307 11 45 12.9 0.0 0.00 0.00 0.00 75 1056.5
20260505153154 11 22 3.2 0.0 0.00 0.00 0.00 74 1056.5
20260505153040 11 45 16.1 0.0 0.00 0.00 0.00 74 1056.6
20260505152918 11 45 14.5 0.0 0.00 0.00 0.00 74 1056.5
20260505152807 11 22 20.9 0.0 0.00 0.00 0.00 74 1056.5
20260505152701 11 45 14.5 0.0 0.00 0.00 0.00 74 1056.5
20260505152539 11 22 11.3 0.0 0.00 0.00 0.00 74 1056.6
20260505152418 11 0 9.7 0.0 0.00 0.00 0.00 73 1056.6
20260505152251 11 22 11.3 0.0 0.00 0.00 0.00 74 1056.6
20260505152144 11 0 19.3 0.0 0.00 0.00 0.00 74 1056.6
20260505152031 11 0 16.1 0.0 0.00 0.00 0.00 74 1056.7
20260505151925 11 67 4.8 0.0 0.00 0.00 0.00 74 1056.6
20260505151813 11 22 4.8 0.0 0.00 0.00 0.00 73 1056.6
20260505151700 11 22 9.7 0.0 0.00 0.00 0.00 73 1056.7
20260505151546 12 0 22.5 0.0 0.00 0.00 0.00 73 1056.6
20260505151433 12 0 17.7 0.0 0.00 0.00 0.00 74 1056.7
20260505151314 12 0 3.2 0.0 0.00 0.00 0.00 74 1056.7
20260505151159 12 337 9.7 0.0 0.00 0.00 0.00 74 1056.7
20260505151038 12 45 11.3 0.0 0.00 0.00 0.00 74 1056.7
20260505150919 12 0 9.7 0.0 0.00 0.00 0.00 74 1056.7
20260505150812 12 0 17.7 0.0 0.00 0.00 0.00 73 1056.6
20260505150659 12 0 27.4 0.0 0.00 0.00 0.00 73 1056.6
20260505150556 12 22 9.7 0.0 0.00 0.00 0.00 73 1056.7
20260505150446 12 337 12.9 0.0 0.00 0.00 0.00 73 1056.7
20260505150319 12 22 9.7 0.0 0.00 0.00 0.00 72 1056.6
20260505150158 12 0 25.7 0.0 0.00 0.00 0.00 73 1056.7
20260505140625 13 90 9.7 0.0 0.00 0.00 0.00 71 1056.9
20260505140512 13 22 4.8 0.0 0.00 0.00 0.00 70 1056.9
20260505140406 13 22 6.4 0.0 0.00 0.00 0.00 70 1056.9